TimeEDT,TemperatureF,Dew PointF,Humidity,Sea Level PressureIn,VisibilityMPH,Wind Direction,Wind SpeedMPH,Gust SpeedMPH,PrecipitationIn,Events,Conditions,WindDirDegrees,DateUTC
12:53 AM,71.1,64.0,78,30.21,10.0,NNE,6.9,-,N/A,,Clear,30,2013-10-30 04:53:00
1:53 AM,70.0,64.0,81,30.21,10.0,NNE,6.9,-,N/A,,Clear,30,2013-10-30 05:53:00
2:53 AM,69.1,63.0,81,30.20,10.0,NE,6.9,-,N/A,,Clear,40,2013-10-30 06:53:00
3:53 AM,69.1,63.0,81,30.19,10.0,NE,6.9,-,N/A,,Partly Cloudy,40,2013-10-30 07:53:00
4:53 AM,68.0,63.0,84,30.18,10.0,NNE,4.6,-,N/A,,Clear,30,2013-10-30 08:53:00
5:53 AM,68.0,63.0,84,30.19,10.0,NNE,4.6,-,N/A,,Clear,30,2013-10-30 09:53:00
6:53 AM,68.0,63.0,84,30.20,10.0,NE,5.8,-,N/A,,Scattered Clouds,40,2013-10-30 10:53:00
7:53 AM,68.0,63.0,84,30.21,10.0,NE,4.6,-,N/A,,Mostly Cloudy,50,2013-10-30 11:53:00
8:53 AM,70.0,64.0,81,30.22,10.0,NE,8.1,-,N/A,,Scattered Clouds,40,2013-10-30 12:53:00
9:53 AM,75.0,64.9,71,30.23,10.0,NE,5.8,-,N/A,,Scattered Clouds,50,2013-10-30 13:53:00
10:53 AM,79.0,66.0,64,30.25,10.0,NE,6.9,-,N/A,,Scattered Clouds,50,2013-10-30 14:53:00
11:53 AM,81.0,64.9,58,30.23,10.0,Variable,6.9,-,N/A,,Scattered Clouds,0,2013-10-30 15:53:00
12:53 PM,84.0,62.1,47,30.20,10.0,East,8.1,-,N/A,,Mostly Cloudy,80,2013-10-30 16:53:00
1:53 PM,82.9,62.1,49,30.16,10.0,East,6.9,-,N/A,,Scattered Clouds,100,2013-10-30 17:53:00
2:53 PM,84.0,61.0,46,30.14,10.0,East,6.9,-,N/A,,Mostly Cloudy,90,2013-10-30 18:53:00
3:53 PM,82.9,62.1,49,30.12,10.0,NE,9.2,-,N/A,,Mostly Cloudy,50,2013-10-30 19:53:00
4:53 PM,82.9,62.1,49,30.12,10.0,East,8.1,16.1,N/A,,Mostly Cloudy,80,2013-10-30 20:53:00
5:53 PM,82.0,61.0,49,30.12,10.0,East,5.8,-,N/A,,Mostly Cloudy,80,2013-10-30 21:53:00
6:53 PM,81.0,62.1,52,30.13,10.0,Variable,3.5,-,N/A,,Mostly Cloudy,0,2013-10-30 22:53:00
7:53 PM,80.1,63.0,56,30.14,10.0,ENE,6.9,-,N/A,,Mostly Cloudy,60,2013-10-30 23:53:00
8:53 PM,79.0,63.0,58,30.15,10.0,East,5.8,-,N/A,,Mostly Cloudy,80,2013-10-31 00:53:00
9:53 PM,77.0,63.0,62,30.15,10.0,Variable,5.8,-,N/A,,Clear,0,2013-10-31 01:53:00
10:53 PM,75.0,64.0,69,30.15,10.0,East,4.6,-,N/A,,Clear,90,2013-10-31 02:53:00
11:53 PM,73.9,64.0,71,30.15,10.0,Variable,4.6,-,N/A,,Clear,0,2013-10-31 03:53:00